Погода в Красноармейске

Россия / Саратовская область     51°01′24″N   45°41′42″E
темп.,
°C
ветер,
м/с
пор.,
м/с
влажн.,
%
обл.,
%
осадки,
мм/ч
давл.,
гПа
погр.,
м
17 мая, пн
пн1701:00+20ююв225117 0.0 101412
04:00+19ююв224999 0.0 101517
07:00+19в345460 0.0 101661
10:00+23вюв41037100 0.0 1016443
13:00+28юв7102753 0.0 10152013
16:00+28юв68286 0.0 10142304
19:00+25вюв36435 0.0 1014108
22:00+20в33445 0.0 101420
18 мая, вт
вт1801:00+17в22465 0.0 101412
04:00+16всв23506 0.0 101417
07:00+17св23556 0.0 101365
10:00+23в49404 0.0 1013424
13:00+29юв713251 0.0 10122817
16:00+29вюв711280 0.0 10122861
19:00+25вюв411410 0.0 1012217
22:00+20в415465 0.0 1012258
19 мая, ср
ср1901:00+19юв234598 0.0 101222
04:00+17вюв225011 0.0 101115
07:00+18всв3135882 0.0 1011347
10:00+24вюв61246100 0.0 1010586
13:00+28юв81240100 0.0 10102072
16:00+28вюв8113881 0.0 10092615
19:00+22ююв131854100 0.2 1010669
22:00+21в5125769 1.1 1008243
20 мая, чт
чт2001:00+17зюз4672100 0.0 1009106
04:00+15зюз51089100 0.0 1011280
07:00+14ююз3685100 0.1 1013302
10:00+17ю5674100 0.1 1014805
13:00+19ю565995 0.1 10141511
16:00+18юз3564100 0.3 1015482
19:00+18зюз346323 0.1 1015845
22:00+14з36855 0.1 1016111
21 мая, пт
пт2101:00+12з47911 0.0 1017140
04:00+11зсз33924 0.0 101846
07:00+13зсз368466 0.0 1019210
10:00+18зсз336498 0.0 1019845
13:00+21зсз34512 0.0 10201636
16:00+22сз44455 0.0 10201654
19:00+21ссз24549 0.0 1020261
22:00+17сз22645 0.0 102111